Location: Bridgeport Ranger District
(38.3685°N, 119.0254°W)
Time: 01:11:42
(UTC+00:00)

Daily predictions for brighter satellites

Satellite Brightness Start Highest point End
(mag) Time Altitude Azimuth Time Altitude Azimuth Time Altitude Azimuth
MetOp-A 4.5 03:38:40 10° SSE 03:43:49 52° ENE 03:49:00 10° N
MOS 1 4.4 03:40:15 10° SSE 03:45:57 84° ENE 03:51:39 10° NNW
Cosmos 1850 Rocket 4.2 03:42:22 10° NNW 03:47:41 63° ENE 03:52:56 10° SSE
STARLINK-1144 4.4 03:44:02 10° NW 03:47:59 42° NE 03:51:56 10° ESE
VEP-3 4.3 03:47:25 10° SSW 03:50:08 12° S 03:52:30 10° SE
ASTEX 1 3.8 03:45:57 10° S 03:50:49 67° W 03:55:45 10° NNW
DMSP B5D2-2 4.1 03:46:06 10° NNE 03:51:21 65° ESE 03:56:33 10° S
Cosmos 1331 Rocket 4.1 03:47:54 10° S 03:52:53 54° ESE 03:57:56 10° NNE
STARLINK-1103 4.3 03:48:59 10° NW 03:52:59 46° NE 03:56:58 10° ESE
MONITOR-E 3.9 03:52:39 10° S 03:55:10 69° W 03:57:42 10° NNW
BREEZE-M DEB (TANK) 4.3 03:54:04 10° W 03:55:52 20° SW 03:57:51 10° S
USA 186 2.8 03:53:34 10° S 03:56:07 38° W 03:58:52 10° NNW
CZ-2C R/B 4.3 03:51:49 10° S 03:57:11 48° W 04:02:47 10° NNW
STARLINK-1101 4.2 03:53:57 10° NW 03:57:59 50° NE 04:02:00 10° ESE
Cosmos 2279 Rocket 4.1 03:52:46 10° N 03:58:58 66° E 04:05:06 10° SSE
SL-8 R/B 4.1 03:56:53 10° NW 04:01:38 59° NNE 04:06:22 10° ESE
STARLINK-29 2.9 03:59:31 10° SW 04:02:45 89° NW 04:05:58 10° NE
STARLINK-1102 4.0 03:58:54 10° NW 04:02:58 55° NE 04:06:51 11° ESE
STARLINK-1111 3.9 04:03:53 10° NW 04:07:58 60° NE 04:11:39 13° ESE
Intercosmos 24 4.0 04:05:07 10° N 04:08:49 74° E 04:13:36 10° SSE
deb Kosmos-1763 4.1 04:05:59 10° NNW 04:09:33 64° ENE 04:12:50 12° SSE
SL-4 R/B 2.9 04:05:19 10° WSW 04:09:51 63° NW 04:14:39 10° NE
CENTAUR R/B 4.3 04:04:47 10° NNW 04:11:51 32° NE 04:19:24 10° ESE
SPOT 3 Rocket 3.5 04:07:25 10° SSE 04:12:33 82° ENE 04:17:44 10° NNW
STARLINK-1073 3.8 04:08:50 10° NW 04:12:57 66° NE 04:16:26 14° ESE
ASTRO E2 4.3 04:10:27 10° WSW 04:13:26 20° SSW 04:15:51 13° SSE
ISS -1.1 04:13:40 10° WSW 04:14:56 12° SW 04:16:11 10° SSW
STARLINK-1320 3.8 04:14:18 10° S 04:16:58 26° SE 04:19:38 10° ENE
STARLINK-1322 3.8 04:14:39 10° S 04:17:19 26° SE 04:20:00 10° ENE
STARLINK-1324 3.8 04:14:58 10° S 04:17:38 27° SE 04:20:20 10° ENE
STARLINK-1121 3.7 04:13:47 10° NW 04:17:56 73° NE 04:21:12 16° SE
STARLINK-1294 3.8 04:15:17 10° S 04:17:57 27° SE 04:20:38 10° ENE
Cosmos 1437 Rocket 3.3 04:14:29 10° SSW 04:18:13 59° W 04:22:01 10° N
ARGOS 4.5 04:13:20 10° SSW 04:18:18 38° W 04:23:20 10° NNW
STARLINK-1261 3.8 04:15:38 10° SSW 04:18:19 27° SE 04:21:02 10° ENE
COSMOS 2455 4.2 04:15:31 12° SE 04:18:33 18° ESE 04:22:25 10° ENE
STARLINK-1325 3.8 04:15:58 10° SSW 04:18:40 27° SE 04:21:23 10° ENE
H-2A R/B 3.9 04:14:35 10° SSW 04:18:58 29° W 04:23:29 10° NW
STARLINK-1333 3.7 04:16:19 10° SSW 04:19:02 28° SE 04:21:45 10° ENE
STARLINK-1334 3.7 04:16:36 10° SSW 04:19:19 28° SE 04:22:02 10° ENE
STARLINK-1326 3.7 04:16:55 10° SSW 04:19:38 28° SE 04:22:22 10° ENE
STARLINK-1323 3.7 04:17:18 10° SSW 04:20:01 28° SE 04:22:45 10° ENE
STARLINK-1349 3.7 04:17:35 10° SSW 04:20:19 28° SE 04:23:04 10° ENE
STARLINK-1336 3.7 04:17:54 10° SSW 04:20:38 29° SE 04:23:23 10° ENE
CZ-2C R/B 3.1 04:15:04 10° N 04:20:41 72° WNW 04:26:12 10° SSW
STARLINK-1331 3.7 04:18:16 10° SSW 04:21:01 29° SE 04:23:47 10° ENE
STARLINK-1344 3.7 04:18:34 10° SSW 04:21:19 29° SE 04:24:05 10° ENE
STARLINK-1343 3.6 04:18:56 10° SSW 04:21:42 29° SE 04:24:28 10° ENE
STARLINK-1346 3.6 04:19:13 10° SSW 04:21:59 30° SE 04:24:46 10° ENE
STARLINK-1328 3.6 04:19:38 10° SSW 04:22:25 30° SE 04:25:12 10° ENE
STARLINK-1354 3.6 04:19:56 10° SSW 04:22:42 30° SE 04:25:30 10° ENE
STARLINK-1373 4.5 04:19:26 10° S 04:22:48 26° SE 04:26:10 10° ENE
STARLINK-1106 3.6 04:18:46 10° NW 04:22:55 81° NE 04:25:59 17° SE
STARLINK-1347 3.6 04:20:12 10° SSW 04:22:59 30° SE 04:25:47 10° ENE
STARLINK-1357 3.6 04:20:38 10° SSW 04:23:25 31° SE 04:26:13 10° ENE
STARLINK-1335 3.6 04:20:54 10° SSW 04:23:42 31° SE 04:26:30 10° ENE
STARLINK-1327 3.6 04:21:15 10° SSW 04:24:03 31° SE 04:26:52 10° ENE
STARLINK-1340 3.5 04:21:32 10° SSW 04:24:20 32° SE 04:27:10 10° ENE
STARLINK-1356 3.5 04:21:55 10° SSW 04:24:43 32° SE 04:27:33 10° ENE
STARLINK-1345 3.5 04:22:12 10° SSW 04:25:02 32° SE 04:27:52 10° ENE
STARLINK-1355 3.5 04:22:34 10° SSW 04:25:23 32° SE 04:28:14 10° ENE
STARLINK-1321 3.5 04:22:54 10° SSW 04:25:44 33° SE 04:28:35 10° ENE
STARLINK-1358 3.5 04:23:17 10° SSW 04:26:07 33° SE 04:28:58 10° ENE
STARLINK-1332 3.5 04:23:34 10° SSW 04:26:24 33° SE 04:29:16 10° ENE
STARLINK-1348 3.5 04:23:54 10° SSW 04:26:45 34° SE 04:29:36 10° ENE
Cosmos 1943 Rocket 2.1 04:21:20 10° SSW 04:26:51 76° ESE 04:32:27 10° NNE
STARLINK-1330 3.4 04:24:13 10° SSW 04:27:04 34° SE 04:29:56 10° ENE
STARLINK-1363 3.4 04:24:33 10° SSW 04:27:24 34° SE 04:30:16 10° ENE
STARLINK-1390 4.3 04:24:03 10° S 04:27:34 29° SE 04:31:04 10° ENE
STARLINK-1337 3.4 04:24:55 10° SSW 04:27:47 35° SE 04:30:39 10° ENE
STARLINK-1112 3.6 04:23:45 10° NW 04:27:54 88° NE 04:30:47 19° SE
STARLINK-1342 3.4 04:25:13 10° SSW 04:28:05 35° SE 04:30:58 10° ENE
STARLINK-1364 3.4 04:25:33 10° SSW 04:28:25 35° SE 04:31:19 10° ENE
STARLINK-1376 3.4 04:25:53 10° SSW 04:28:46 35° SE 04:31:39 10° ENE
STARLINK-1360 3.4 04:26:13 10° SSW 04:29:06 36° SE 04:32:00 10° ENE
STARLINK-1361 3.4 04:26:34 10° SSW 04:29:27 36° SE 04:32:20 10° ENE
STARLINK-1367 3.3 04:26:50 10° SSW 04:29:43 36° SE 04:32:38 10° ENE
STARLINK-1366 3.3 04:27:12 10° SSW 04:30:05 37° SE 04:33:00 10° ENE
ATLAS CENTAUR R/B 2.2 04:28:20 10° S 04:32:20 32° ESE 04:36:09 10° NE
STARLINK-1128 3.6 04:28:42 10° NW 04:32:52 84° SW 04:35:33 21° SE
Okean 2 4.2 04:31:08 19° SE 04:33:28 33° E 04:37:13 10° NNE
STARLINK-1365 4.2 04:29:51 10° SSW 04:33:30 33° SE 04:37:11 10° ENE
Okean 1 Rocket 3.1 04:29:13 10° N 04:33:37 63° E 04:36:53 17° SSE
Lacrosse 5 4.2 04:33:26 10° W 04:36:29 16° WSW 04:39:32 10° SSW
Cosmos 1092 Rocket 4.3 04:31:25 13° SSE 04:36:35 45° E 04:42:24 10° NNE
STARLINK-1113 3.6 04:33:43 10° NW 04:37:51 76° SW 04:40:21 23° SE
STARLINK-52 4.3 04:35:01 10° WSW 04:38:05 43° NW 04:41:11 10° NE
Cosmos 1766 4.0 04:37:44 10° N 04:41:28 38° ENE 04:43:16 24° SE
ERS-1 Rocket 4.3 04:39:06 17° ESE 04:41:44 25° ENE 04:45:48 10° NNE
NOSS 3-4 (A) 3.5 04:36:23 10° S 04:42:01 49° ESE 04:47:53 10° NE
NOSS 3-4 (C) 3.5 04:36:30 10° S 04:42:07 48° ESE 04:47:59 10° NE
STARLINK-1119 3.7 04:38:41 10° NW 04:42:48 68° SW 04:45:07 25° SSE
STARLINK-1338 3.9 04:39:25 10° SSW 04:43:08 40° SE 04:46:53 10° ENE
Cosmos 1900 4.4 04:39:41 10° NNW 04:44:47 86° ENE 04:48:05 22° SSE
Cosmos 1656 Rocket 4.2 04:41:39 16° SSE 04:45:34 36° ESE 04:50:38 10° NE
STARLINK-1114 3.8 04:43:42 10° NW 04:47:47 61° SW 04:49:55 26° SSE
STARLINK-1371 3.6 04:47:17 10° SSW 04:51:05 48° SE 04:54:53 10° ENE
STARLINK-1130 (DARKSAT) 4.0 04:48:41 10° WNW 04:52:44 55° SW 04:54:40 28° SSE
Cosmos 1378 3.2 04:50:39 13° SSW 04:53:55 74° W 04:57:37 10° N
Abrixas rocket 3.7 04:52:15 10° W 04:54:35 21° SW 04:55:10 20° SSW
STARLINK-1341 3.5 04:51:36 10° SSW 04:55:26 53° SE 04:59:17 10° ENE
STARLINK-1084 4.1 04:53:42 10° WNW 04:57:42 49° SW 04:59:28 29° SSE
MetOp-B 4.1 04:55:06 20° SSE 04:58:50 90° SE 05:04:13 10° NNW
Resurs 01 Rocket 2.4 04:55:45 14° S 04:59:26 48° W 05:03:45 10° NNW
STARLINK-1374 3.4 04:56:22 10° SW 05:00:17 59° SE 05:04:13 10° NE
USA 245 2.2 05:00:46 58° E 05:00:50 59° ENE 05:03:12 10° N
Cosmos 2082 Rocket 4.3 04:58:03 10° NW 05:02:07 20° W 05:06:10 10° SW
STARLINK-1098 4.3 04:58:42 10° WNW 05:02:39 44° SW 05:04:14 29° S
Cosmos 2369 Rocket 2.4 04:57:56 10° SSW 05:03:36 76° WNW 05:09:16 10° NNE
STARLINK-1339 3.4 05:00:10 10° SW 05:04:03 64° SE 05:07:58 10° NE
STARLINK-1123 4.4 05:03:44 10° WNW 05:07:37 39° SW 05:09:02 29° S
SAR-Lupe-2 3.5 05:04:19 10° N 05:07:56 84° W 05:09:49 26° SSW
STARLINK-1377 3.3 05:05:03 10° SW 05:09:00 72° SE 05:12:59 10° NE
ATLAS 2AS CENTAUR R/B 3.0 05:01:42 10° SSW 05:09:36 84° ESE 05:17:38 10° NE
BREEZE-M DEB (TANK) 3.9 04:56:08 10° SSW 05:10:06 48° SE 05:14:29 10° ENE
Cosmos 1805 3.4 05:09:09 10° NNW 05:13:04 69° W 05:14:45 32° S
STARLINK-1353 3.3 05:09:23 10° SW 05:13:22 80° SE 05:17:23 10° NE
Cosmos 2026 Rocket 4.0 05:09:53 22° S 05:14:03 69° E 05:20:23 10° NNE
NOSS 3-2 (A) 4.1 05:06:48 10° NW 05:14:37 83° WSW 05:19:52 27° SSE
STARLINK-1235 4.3 05:12:32 10° NW 05:15:47 36° NE 05:16:44 30° ENE
SPOT 5 3.5 05:14:02 31° SE 05:16:09 47° ENE 05:21:17 10° N
STARLINK-1375 3.4 05:13:46 10° SW 05:17:46 87° SE 05:21:47 10° NE
STARLINK-1212 4.3 05:15:18 10° NNW 05:18:05 29° NE 05:18:41 27° NE
Terra 2.8 05:17:08 28° ESE 05:18:29 33° ENE 05:22:43 10° N
STARLINK-1105 4.3 05:16:34 10° NNW 05:19:27 30° NE 05:20:03 28° ENE
Cosmos 1470 3.7 05:16:16 10° NNE 05:19:43 30° ENE 05:19:53 30° E
STARLINK-1247 4.3 05:17:41 10° NNW 05:20:37 31° NE 05:21:14 29° ENE
SL-27 R/B 2.3 05:17:19 10° NNW 05:20:51 86° WSW 05:21:22 62° S
Spot 2 Rocket 3.7 05:18:32 27° S 05:21:16 68° WSW 05:26:19 10° NNW
STARLINK-1227 4.2 05:18:22 10° NNW 05:21:18 32° NE 05:21:52 29° ENE
Cosmos 1733 3.1 05:18:01 10° N 05:21:49 83° W 05:22:45 49° S
STARLINK-1350 3.5 05:18:08 10° SW 05:22:08 86° NW 05:26:09 10° NE
STARLINK-1226 4.2 05:19:33 10° NNW 05:22:30 32° NE 05:23:00 30° NE
STARLINK-1215 4.1 05:20:41 10° NNW 05:23:40 33° NE 05:24:09 31° NE
STARLINK-1217 4.1 05:23:02 10° NNW 05:26:03 35° NE 05:26:26 34° NE
STARLINK-1352 3.5 05:22:07 10° SW 05:26:06 79° NW 05:30:07 10° NE
Cosmos 1842 3.4 05:24:53 35° SSW 05:26:24 70° W 05:30:17 10° N
STARLINK-1229 4.0 05:24:12 10° NNW 05:27:13 36° NE 05:27:33 35° NE
STARLINK-1270 4.0 05:24:48 10° NNW 05:27:45 35° NE 05:28:00 35° NE
Cosmos 1553 Rocket 4.4 05:23:24 10° N 05:29:20 45° ENE 05:31:23 34° ESE
USA 238 DEB 4.0 05:22:32 10° NW 05:29:45 68° WSW 05:33:40 30° SSE
USA 238 4.0 05:22:37 10° NW 05:29:52 69° WSW 05:33:47 30° SSE
CZ-4B DEB 4.2 05:30:17 77° SSW 05:30:28 82° WSW 05:33:48 10° NNW
STARLINK-1189 3.9 05:27:49 10° NW 05:30:54 39° NE 05:31:06 38° NE
STARLINK-1368 3.7 05:27:03 10° SW 05:31:03 72° NW 05:35:04 10° NE
STARLINK-1188 3.9 05:29:05 10° NW 05:32:10 40° NE 05:32:19 39° NE
STARLINK-1191 3.8 05:31:44 10° NW 05:34:47 42° NE 05:34:47 42° NE
Cosmos 1025 Rocket 3.3 05:34:55 47° E 05:35:05 47° E 05:39:14 10° NNE
STARLINK-1221 3.8 05:32:10 10° NW 05:35:05 41° NNE 05:35:05 41° NNE
STARLINK-1369 3.9 05:31:32 10° WSW 05:35:31 66° NW 05:39:31 10° NE
STARLINK-1222 3.7 05:34:16 10° NW 05:37:15 44° NNE 05:37:15 44° NNE
STARLINK-1214 3.8 05:34:52 10° NW 05:37:47 44° NNE 05:37:47 44° NNE
Cosmos 1271 Rocket 2.5 05:38:26 72° SE 05:38:42 78° E 05:42:41 10° NNE
Cosmos 1975 Rocket 4.0 05:36:22 20° SW 05:39:06 45° W 05:43:20 10° N
RESURS DK-1 3.6 05:41:50 28° ENE 05:41:50 28° ENE 05:44:21 10° NE
Cosmos 1503 Rocket 4.3 05:36:42 10° N 05:41:58 57° ENE 05:43:20 44° ESE
Cosmos 1242 Rocket 3.1 05:42:20 44° SW 05:43:07 55° W 05:46:45 10° N
STARLINK-1378 4.2 05:40:32 10° WSW 05:44:28 55° NW 05:48:26 10° NE
Cosmos 1953 3.7 05:42:47 10° NNE 05:45:48 27° ENE 05:45:48 27° ENE
Cosmos 1174 4.2 05:46:16 41° W 05:46:51 48° WNW 05:50:19 10° NNE
STARLINK-1379 4.4 05:45:06 10° WSW 05:49:01 50° NW 05:52:56 10° NE
Meteor 2-10 4.5 05:45:24 10° N 05:50:10 42° ENE 05:50:50 40° E
Cosmos 1707 2.7 05:51:02 70° ENE 05:51:02 70° ENE 05:54:39 10° NNE
Milstar 3 Cent rocket 4.1 05:46:32 10° WSW 05:54:49 51° SSE 06:12:29 10° E
STARLINK-1209 3.7 05:51:24 10° NW 05:54:11 55° WNW 05:54:11 55° WNW
Cosmos 1655 Rocket 4.0 05:53:44 45° SSE 05:55:28 62° E 06:01:39 10° NNE
SPOT 1/Viking Rocket 4.3 05:53:38 30° SSW 05:55:38 44° W 06:00:34 10° NNW
STARLINK-1187 4.2 05:57:48 10° NW 06:00:03 41° NW 06:00:03 41° NW
CENTAUR R/B 3.3 05:55:01 10° NW 06:03:19 75° WSW 06:07:03 39° SSE
COSMOS 2455 3.1 05:58:30 13° SW 06:03:51 66° WNW 06:09:52 10° NNE
Cosmos 1354 Rocket 3.9 05:59:20 10° NNW 06:04:40 81° ENE 06:05:32 63° SE
BREEZE-M DEB (TANK) 3.1 05:56:07 10° NW 06:05:14 78° SW 06:06:07 58° SSE
Cosmos 1758 3.3 06:01:33 10° N 06:05:32 78° WNW 06:05:32 78° WNW
STARLINK-1234 4.5 06:06:48 10° NW 06:09:06 36° WNW 06:09:06 36° WNW
ATLAS CENTAUR R/B 3.6 06:07:36 10° WSW 06:11:15 25° NW 06:14:43 10° N
Cosmos 1455 Rocket 4.2 06:07:30 10° NNW 06:11:27 35° W 06:12:13 32° WSW
ATLAS 3B R/B 2.9 06:05:07 10° NNW 06:11:55 64° NE 06:14:17 42° ESE
H-2A ROCKET BODY 4.4 06:06:03 10° SW 06:13:24 54° SSE 06:56:26 10° E
Cosmos 2297 Rocket 4.3 06:14:22 10° NNE 06:17:40 15° NE 06:20:07 12° E
ERS-1 Rocket 4.1 06:19:06 31° SW 06:20:19 35° W 06:24:55 10° NNW
Meteor 2-19 Rocket 4.3 06:22:57 60° SSE 06:24:09 81° E 06:30:16 10° N
CZ-4C R/B 3.9 06:32:08 17° ENE 06:32:08 17° ENE 06:33:57 10° ENE
ATLAS 3B CENTAUR R/B 3.9 06:19:06 10° W 06:31:14 35° SSW 06:31:46 35° SSW
STARLINK-1205 4.5 06:27:52 10° NW 06:31:37 46° NNE 06:31:37 46° NNE
ATLAS 5 CENTAUR R/B 3.4 06:27:05 10° SW 06:33:20 36° WNW 06:35:57 10° NNE
Cosmos 2098 Rocket 4.4 06:34:27 54° SSE 06:36:07 69° E 06:43:30 10° NNE
STARLINK-1218 4.4 06:32:50 10° NW 06:36:25 48° NNE 06:36:25 48° NNE
STARLINK-1254 4.4 06:37:48 10° NW 06:41:12 49° N 06:41:12 49° N
Cosmos 1726 3.4 06:39:09 10° NNW 06:41:42 39° NW 06:41:42 39° NW
Meteor 1-16 Rocket 3.9 06:39:58 10° N 06:45:23 81° W 06:45:32 80° SW
Cosmos 1674 4.0 06:47:26 38° N 06:47:26 38° N 06:49:52 10° N
Cosmos 1867 4.4 06:43:14 10° NW 06:48:07 36° WSW 06:48:07 36° WSW
Meteor 2-15 4.2 06:42:48 10° N 06:48:58 89° E 06:49:38 73° S
Timation 2 Rocket 3.8 06:47:44 10° NNW 06:53:56 73° ENE 06:54:34 67° ESE
Cosmos 2227 Rocket 3.7 06:51:13 10° N 06:55:55 26° ENE 06:57:21 23° E
Terra 3.5 06:56:01 23° W 06:56:14 23° W 07:00:01 10° NW
Cosmos 1777 Rocket 4.0 06:56:01 10° NNW 07:01:02 81° NW 07:01:02 81° NW
Exosat Rocket 4.2 06:57:12 10° NNW 07:05:03 60° WSW 07:05:51 56° SW
Nadezhda 2 Rocket 4.3 07:05:28 71° ESE 07:05:46 73° E 07:11:53 10° N
Cosmos 2315 Rocket 3.8 07:04:01 10° N 07:10:14 80° W 07:10:46 73° SSW
Meteor 2-15 Rocket 4.3 07:05:22 10° N 07:11:31 77° W 07:11:57 73° SW
Cosmos 1626 4.1 07:13:31 27° NNE 07:13:31 27° NNE 07:15:18 10° NNE
Thor Agena Rocket 4.2 07:06:55 10° N 07:11:57 47° WNW 07:12:37 44° W
Cosmos 1606 Rocket 4.4 07:10:47 10° NNW 07:14:02 48° NNW 07:14:02 48° NNW
Cosmos 2058 Rocket 4.0 07:12:52 10° N 07:16:15 46° NNE 07:16:15 46° NNE
Meteor 2-5 Rocket 3.7 07:18:27 72° W 07:18:33 72° W 07:24:12 10° N
ALOS 2 3.4 07:21:32 49° NNE 07:21:32 49° NNE 07:24:52 10° N
SeaSat 1 2.7 07:21:41 10° NNE 07:26:25 63° NW 07:26:25 63° NW
Lacrosse 4 Rocket 3.4 07:29:07 10° N 07:32:26 22° NE 07:32:26 22° NE
Cosmos 921 Rocket 4.4 07:33:21 34° NW 07:33:21 34° NW 07:36:48 10° N
ATLAS CENTAUR R/B 4.2 07:33:09 10° N 07:33:56 15° NNE 07:33:56 15° NNE
Cosmos 1980 Rocket 3.7 07:38:49 25° E 07:38:49 25° E 07:42:22 10° NE
Cosmos 2369 4.0 07:49:44 56° ENE 07:49:44 56° ENE 07:54:37 10° NNE
Helios 1A 4.1 07:50:37 42° N 07:50:37 42° N 07:53:27 10° N
Cosmos 1656 3.9 07:54:55 59° WNW 07:55:05 59° WNW 08:00:38 10° NNE
Cosmos 1898 Rocket 3.9 07:51:24 10° N 07:56:29 55° ENE 07:56:29 55° ENE
BREEZE-M DEB (TANK) 3.7 07:53:32 10° NW 08:03:58 11° ESE 08:04:22 10° ESE
Meteor 1-24 Rocket 4.4 07:57:56 42° WNW 07:58:01 42° WNW 08:03:14 10° N
Cosmos 1745 Rocket 3.8 08:00:03 85° SSE 08:00:12 87° E 08:06:21 10° N
ATLAS 3B R/B 4.1 07:56:48 10° WNW 08:01:31 24° WSW 08:01:31 24° WSW
Cosmos 2297 Rocket 2.2 07:56:43 10° NNW 08:01:54 72° WNW 08:01:54 72° WNW
Cosmos 990 Rocket 4.2 07:59:55 10° NNW 08:04:44 66° NE 08:04:44 66° NE
Cosmos 2360 4.4 08:05:44 60° E 08:05:44 60° E 08:10:50 10° NNE
SJ 16-02 2.3 08:01:15 10° NNW 08:04:23 45° N 08:04:23 45° N
Cosmos 2219 3.6 08:01:18 10° NNW 08:06:04 53° WNW 08:06:04 53° WNW
Cosmos 2322 Rocket 4.4 08:16:57 12° E 08:17:03 12° E 08:19:01 10° ENE
Cosmos 2082 3.8 08:11:34 10° NNW 08:17:12 67° ENE 08:17:21 67° ENE
CZ-4C R/B 2.8 08:17:16 41° WNW 08:17:51 43° NW 08:23:21 10° NNE
Cosmos 841 Rocket 3.8 08:19:06 61° ENE 08:19:06 61° ENE 08:23:36 10° NNE
Cosmos 1386 Rocket 4.5 08:22:14 66° W 08:22:32 67° W 08:28:45 10° N
Cosmos 1697 Rocket 2.8 08:23:09 64° WNW 08:23:14 64° WNW 08:28:53 10° NNE
Cosmos 2278 3.6 08:25:35 81° ENE 08:25:35 81° ENE 08:31:02 10° NNE
Cosmos 1763 Rocket 4.0 08:25:58 51° NW 08:25:58 51° NW 08:30:35 10° N
Cosmos 1570 Rocket 4.1 08:26:55 75° N 08:26:55 75° N 08:31:47 10° NNE
Meteor 2-1 Rocket 4.1 08:22:09 10° NNW 08:27:30 78° WNW 08:27:30 78° WNW
Resurs 1-4 Rocket 3.9 08:25:07 10° NE 08:28:51 19° E 08:29:13 19° E
Cosmos-2242 4.0 08:35:16 10° N 08:38:32 44° NE 08:38:32 44° NE
Cosmos 2227 Rocket 3.0 08:34:46 10° NW 08:39:09 40° W 08:39:09 40° W
Cosmos 2181 Rocket 4.4 08:34:20 10° N 08:40:42 58° E 08:42:05 49° SE
CZ-4 R/B 4.4 08:36:48 10° N 08:40:47 51° NW 08:40:47 51° NW
Cosmos 2208 Rocket 4.1 08:46:08 70° NW 08:46:08 70° NW 08:51:18 10° NNE
Cosmos 1709 Rocket 3.9 08:48:20 68° WSW 08:48:47 71° W 08:54:58 10° N
GP-B 4.3 08:46:22 10° NNE 08:50:11 34° E 08:50:11 34° E
Gblst 52 Del rocket 4.2 08:51:33 75° SSW 08:52:01 81° SE 08:58:54 10° NE
SL-16 R/B 3.3 08:52:02 32° ESE 08:52:20 32° ESE 08:57:18 10° NE
Helios 1B rocket 3.7 08:49:03 10° N 08:51:59 35° NW 08:51:59 35° NW
USA 81 4.2 08:53:35 63° WNW 08:53:35 63° WNW 08:58:36 10° N
Cosmos 1455 4.0 08:52:41 10° NNW 08:54:35 27° NNW 08:54:35 27° NNW
SL-16 R/B 3.6 08:55:50 23° ESE 08:59:04 39° ENE 09:04:45 10° N
Cosmos 540 Rocket 3.9 09:00:09 52° WNW 09:00:09 52° WNW 09:05:05 10° N
CZ-2D R/B 3.0 08:56:22 10° NNE 09:01:10 36° E 09:01:38 36° ESE
Cosmos 489 Rocket 4.3 09:00:35 71° SSW 09:01:19 90° E 09:07:36 10° NNE
Meteor 2-10 Rocket 4.0 08:56:40 10° NNW 09:00:53 47° WNW 09:00:53 47° WNW
Lacrosse 4 Rocket 3.6 09:07:27 10° NW 09:08:42 17° WNW 09:08:42 17° WNW
SL-4 R/B 4.2 09:08:14 10° NW 09:12:31 30° NNE 09:16:40 10° E
STARLINK-1287 4.4 09:14:19 49° NE 09:14:19 49° NE 09:17:24 10° NE
Cosmos 2360 Rocket 3.9 09:12:49 18° ESE 09:14:14 20° E 09:18:12 10° NE
Cosmos 2285 Rocket 4.0 09:09:28 10° NNW 09:15:39 57° WSW 09:16:02 56° WSW
Cosmos 1980 Rocket 2.9 09:20:34 37° W 09:21:30 40° WNW 09:26:48 10° N
STARLINK-1302 4.1 09:23:53 59° NNE 09:23:53 59° NNE 09:27:21 10° NE
CZ-4B R/B 4.3 09:18:13 10° NNE 09:23:14 42° E 09:24:15 38° SE
STARLINK-1299 4.0 09:24:11 61° N 09:24:11 61° N 09:28:03 10° NE
UNK 4.4 09:23:22 44° ESE 09:24:14 51° ENE 09:28:40 10° N
USA 215 3.1 09:24:21 31° SE 09:27:48 76° SW 09:34:23 10° NW
STARLINK-1273 4.0 09:28:39 62° N 09:28:39 62° N 09:32:19 10° NE
STARLINK-61 4.2 09:30:01 51° NE 09:30:01 51° NE 09:33:02 10° NE
AQUA 4.4 09:27:33 10° NNE 09:32:10 48° E 09:32:50 45° SE
FALCON 9 R/B 3.3 09:30:16 41° WSW 09:32:31 54° S 09:51:59 10° ESE
STARLINK-1288 3.9 09:33:26 62° NNW 09:33:26 62° NNW 09:37:16 10° NE
Meteor 1-11 4.4 09:35:21 52° WSW 09:36:02 55° WNW 09:41:31 10° N
Cosmos 2074 Rocket 3.9 09:34:50 55° SSW 09:36:19 77° W 09:42:36 10° N
ADEOS II 3.5 09:32:43 10° NE 09:37:19 30° E 09:39:20 23° SE
STARLINK-1308 4.0 09:38:15 57° NNW 09:38:15 57° NNW 09:42:17 10° NE
IRS-1D 4.5 09:33:28 10° NNE 09:38:22 39° E 09:39:54 32° SE
Cosmos 372 Rocket 4.2 09:35:36 10° NNW 09:40:20 50° W 09:40:20 50° W
Cosmos 2263 Rocket 2.2 09:36:07 10° NNW 09:41:44 78° ENE 09:44:02 37° SSE
Cosmos 1400 Rocket 3.8 09:39:40 10° NNW 09:42:43 39° WNW 09:42:43 39° WNW
Cosmos 1076 Rocket 4.3 09:43:47 40° ESE 09:44:31 44° E 09:48:42 10° NNE
STARLINK-69 4.5 09:47:34 35° E 09:47:34 35° E 09:49:58 10° ENE
STARLINK-1304 4.2 09:47:48 47° NW 09:48:08 49° NW 09:52:11 10° NE
STARLINK-21 4.4 09:49:49 37° E 09:49:49 37° E 09:52:24 10° ENE
NPP 3.5 09:43:42 10° NNE 09:49:07 89° WNW 09:50:23 55° SSW
Timation 1 Rocket 4.4 09:44:43 10° NNW 09:50:33 58° WSW 09:51:36 51° SSW
STARLINK-45 4.1 09:51:32 43° E 09:51:32 43° E 09:54:17 10° ENE
Cosmos 1825 4.4 09:49:32 15° ESE 09:50:50 18° E 09:53:27 10° NE
STARLINK-76 4.1 09:54:33 43° E 09:54:33 43° E 09:57:22 10° ENE
STARLINK-70 3.9 09:55:47 50° E 09:55:47 50° E 09:58:48 10° NE
STARLINK-23 4.0 09:56:07 46° E 09:56:07 46° E 09:59:01 10° ENE
STARLINK-1007 4.4 09:55:44 39° ESE 09:55:44 39° ESE 09:59:23 10° ENE
STARLINK-32 4.0 09:56:35 44° E 09:56:35 44° E 09:59:18 10° ENE
Cosmos 2150 Rocket 4.1 09:50:57 10° NNW 09:55:54 50° WSW 09:56:04 50° WSW
Shenzhou-11 Module 4.5 09:57:24 18° NE 09:57:24 18° NE 09:58:20 10° ENE
Iridium 2 3.6 09:53:57 10° N 09:57:34 81° NNW 09:57:34 81° NNW
STARLINK-60 4.2 09:54:57 10° NW 09:57:59 40° NE 10:01:01 10° ESE
STARLINK-40 3.8 09:59:15 52° E 09:59:15 52° E 10:02:16 10° NE
STARLINK-44 3.7 10:00:45 55° E 10:00:45 55° E 10:03:53 10° NE
Cosmos 2322 Rocket 2.1 09:58:45 50° SW 10:00:17 80° WNW 10:05:56 10° NNE
STARLINK-1048 4.2 10:00:30 44° SE 10:00:30 44° SE 10:04:23 10° ENE
In-Cosmos 22 Rocket 4.2 09:59:56 43° S 10:01:50 81° E 10:07:20 10° N
Cosmos 2184 Rocket 4.3 10:00:19 40° WSW 10:01:57 49° W 10:07:55 10° N
STARLINK-37 3.5 10:02:29 63° E 10:02:29 63° E 10:05:43 10° NE
STARLINK-36 3.5 10:03:53 61° E 10:03:53 61° E 10:07:08 10° NE
STARLINK-1049 4.0 10:05:17 49° SE 10:05:24 49° SE 10:09:25 10° ENE
STARLINK-63 3.3 10:06:49 72° E 10:06:49 72° E 10:10:09 10° NE
STARLINK-35 3.4 10:07:18 65° E 10:07:18 65° E 10:10:27 10° NE
Cosmos 1125 Rocket 3.4 10:03:25 10° NNW 10:08:34 65° WSW 10:09:59 46° SSW
NOSS 2-1 (C) 4.5 10:08:40 26° NW 10:08:48 26° NW 10:11:48 10° N
Resurs 1-4 Rocket 2.5 10:03:47 10° N 10:08:53 49° WNW 10:10:18 39° WSW
STARLINK-51 3.2 10:09:52 76° E 10:09:52 76° E 10:13:18 10° NE
Cosmos 1610 Rocket 4.5 10:07:45 41° SW 10:09:52 65° W 10:16:02 10° N
STARLINK-1051 3.8 10:10:03 53° SSE 10:10:21 54° SE 10:14:24 10° ENE
STARLINK-30 3.1 10:11:46 82° ESE 10:11:46 82° ESE 10:15:21 10° NE
STARLINK-72 3.1 10:11:55 78° E 10:11:55 78° E 10:15:15 10° NE
CZ-4C R/B 4.3 10:12:51 37° W 10:12:51 37° W 10:16:46 10° NNW
STARLINK-59 3.0 10:15:07 86° NNW 10:15:07 86° NNW 10:18:36 10° NE
USA 229 DEB 3.8 10:09:41 10° NW 10:17:05 78° WSW 10:24:44 10° SSE
USA 229 3.8 10:09:48 10° NW 10:17:11 78° WSW 10:24:51 10° SSE
NOSS 3-1 (C) 4.1 10:10:02 10° NW 10:17:51 72° WSW 10:26:38 10° SSE
STARLINK-56 3.1 10:18:00 78° WSW 10:18:13 85° NW 10:21:51 10° NE
Cosmos 1315 Rocket 3.0 10:15:54 10° NNW 10:19:43 50° W 10:19:45 50° W
Cosmos 2221 2.7 10:15:35 10° NNW 10:19:50 52° W 10:20:23 48° WSW
STARLINK-73 3.1 10:19:34 74° WSW 10:19:50 82° NW 10:23:29 10° NE
STARLINK-1028 3.6 10:19:37 56° S 10:20:16 68° SE 10:24:24 10° NE
GEOS 3 Rocket 4.0 10:15:22 10° SE 10:20:28 65° NE 10:25:42 10° NNW
STARLINK-38 3.1 10:21:08 69° W 10:21:28 78° NW 10:25:06 10° NE
STARLINK-65 3.2 10:22:42 65° W 10:23:06 76° NW 10:26:45 10° NE
STARLINK-68 3.3 10:23:36 60° W 10:24:03 68° NW 10:27:38 10° NE
STARLINK-53 3.3 10:24:20 59° W 10:24:49 69° NW 10:28:26 10° NE
STARLINK-1021 3.5 10:24:25 54° SSW 10:25:15 75° SE 10:29:25 10° NE
NOSS 3-1 (A) 4.2 10:18:24 10° NNW 10:26:17 89° ENE 10:35:08 10° SSE
Cosmos 2237 4.2 10:24:35 35° SSW 10:27:06 89° W 10:32:53 10° NNE
Cosmos 1842 Rocket 4.4 10:24:37 10° NNW 10:28:37 33° W 10:28:56 33° W
Cosmos 2058 3.3 10:28:01 42° WSW 10:28:46 48° W 10:32:51 10° N
STARLINK-1010 3.6 10:28:13 48° SW 10:29:20 86° SE 10:33:35 10° NE
STARLINK-1019 3.5 10:29:10 49° SW 10:30:12 83° SE 10:34:22 10° NE
STARLINK-50 3.4 10:29:28 50° WSW 10:30:18 70° NW 10:34:06 10° NE
STARLINK-29 4.4 10:28:01 10° NW 10:31:03 38° NE 10:34:03 10° ESE
Cosmos 962 Rocket 4.4 10:28:05 30° SSW 10:31:17 75° W 10:37:30 10° N
IRIDIUM 104 4.4 10:30:03 35° SSW 10:32:06 61° W 10:37:16 10° N
IRS-P3 4.1 10:28:05 10° NNE 10:33:27 88° WNW 10:36:16 29° SSW
Cosmos 773 Rocket 4.0 10:31:41 31° SSW 10:34:14 83° ESE 10:39:33 10° NNE
STARLINK-1012 3.5 10:33:58 45° SW 10:35:12 89° NW 10:39:22 10° NE
Cosmos 1844 Rocket 3.8 10:30:43 10° N 10:36:04 44° ENE 10:41:22 10° SE
SL-16 R/B 3.2 10:33:54 24° WSW 10:36:20 34° WNW 10:41:28 10° N
Meteor 1-28 Rocket 4.4 10:35:35 10° SE 10:39:07 42° ENE 10:42:40 10° N
STARLINK-71 3.9 10:37:48 35° W 10:39:14 58° NW 10:43:12 10° NE
STARLINK-25 3.7 10:39:55 36° W 10:40:52 48° NW 10:44:15 10° NE
CZ-2D R/B 3.4 10:36:48 10° NNW 10:41:00 25° WNW 10:42:58 20° W
COSMOS 2428 4.0 10:36:59 12° SSE 10:41:33 34° ESE 10:46:38 10° NE
SL-16 R/B 3.3 10:40:55 26° SW 10:42:41 31° W 10:48:03 10° NW
STARLINK-1026 3.6 10:43:31 35° WSW 10:45:08 74° NW 10:49:17 10° NE
ERS-2 3.3 10:43:33 10° SE 10:47:01 42° ENE 10:50:30 10° N
STARLINK-1013 3.8 10:48:19 31° WSW 10:50:08 67° NW 10:54:16 10° NE
Cosmos 1606 4.1 10:48:20 10° N 10:51:53 37° E 10:55:25 10° SSE
Cosmos 1892 4.0 10:51:50 23° W 10:52:25 24° WNW 10:55:32 10° NNW
SL-4 R/B 2.2 10:47:49 10° WNW 10:52:34 63° SW 10:57:02 10° SE
STARLINK-1009 3.9 10:53:05 28° WSW 10:55:07 61° NW 10:59:14 10° NE
SL-24 DEB 4.1 10:52:11 10° N 10:56:49 88° W 11:00:14 18° S
Cosmos 2360 Rocket 2.5 10:54:35 24° SW 10:57:46 51° WNW 11:03:16 10° NNE
STARLINK-1015 4.0 10:57:52 24° WSW 11:00:06 55° NW 11:04:11 10° NE
BREEZE-M DEB (TANK) 3.9 10:59:07 21° SSW 11:02:32 42° SSE 11:05:35 10° ENE
CZ-2C R/B 3.5 10:59:46 10° NNE 11:03:28 48° E 11:06:58 11° S
STARLINK-81 4.5 11:01:39 19° W 11:03:42 34° NW 11:07:03 10° NNE
STARLINK-1016 4.2 11:02:39 22° WSW 11:05:06 50° NW 11:09:08 10° NE
Cosmos 2366 rocket 4.0 11:01:02 16° SSW 11:06:13 77° W 11:12:33 10° N
STARLINK-52 3.0 11:03:10 10° NW 11:06:23 80° NE 11:09:34 10° SE
Cosmos 1408 Rocket 3.9 11:05:44 11° S 11:09:50 64° E 11:14:07 10° NNE
STARLINK-1008 4.3 11:07:26 19° WSW 11:10:06 46° NW 11:14:06 10° NE
CZ-2D R/B 3.5 11:05:53 10° N 11:10:11 81° WNW 11:13:36 16° SSW
Cosmos 2333 Rocket 2.3 11:07:42 15° SSW 11:12:23 78° ESE 11:18:04 10° NNE
Cosmos 2219 Rocket 2.3 11:10:16 14° SSW 11:15:03 76° ESE 11:20:39 10° NNE
STARLINK-1014 4.4 11:12:15 17° W 11:15:05 42° NW 11:19:01 10° NE
Cosmos 1408 4.2 11:15:30 17° W 11:16:41 20° WNW 11:19:26 10° NNW
ADEOS II 3.1 11:12:22 10° N 11:16:56 31° WNW 11:20:17 16° WSW
STARLINK-1035 4.4 11:14:35 17° SSW 11:17:25 42° SE 11:21:20 10° ENE
Cosmos 2322 3.8 11:13:16 18° SW 11:17:35 67° WNW 11:23:18 10° NNE
Lacrosse 5 rocket 1.6 11:15:51 18° SSW 11:18:43 57° SE 11:22:33 10° NE
IDEFIX/ARIANE 42P 2.6 11:14:48 10° NNE 11:20:05 88° E 11:25:19 10° SSW
STARLINK-1032 4.3 11:19:20 16° SSW 11:22:20 47° SE 11:26:19 10° ENE
Cosmos 2151 3.9 11:20:03 18° SW 11:22:28 32° WNW 11:26:21 10° NNW
ARIANE 5 R/B 3.0 11:18:32 10° N 11:23:16 43° WNW 11:27:03 15° SW
Cosmos 1151 Rocket 3.0 11:19:14 10° N 11:23:39 88° WSW 11:28:01 10° S
ATLAS 5 CENTAUR R/B 2.5 11:20:53 10° S 11:24:36 38° ESE 11:28:38 10° NE
Cosmos 2263 Rocket 3.9 11:22:44 10° WNW 11:24:52 12° W 11:25:39 12° WSW
STARLINK-1037 4.1 11:22:13 16° SSW 11:25:18 51° SE 11:29:19 10° ENE
Cosmos 1825 3.5 11:24:20 17° WSW 11:26:09 23° WNW 11:29:13 10° NNW
H-2A R/B 2.1 11:22:06 10° S 11:26:29 75° WSW 11:31:00 10° NNW
Cosmos 2333 4.4 11:22:35 16° SW 11:27:04 58° WNW 11:32:38 10° NNE
STARLINK-1011 4.1 11:24:08 15° SSW 11:27:19 52° SE 11:31:21 10° ENE
Cosmos 1766 Rocket 4.0 11:24:54 16° SW 11:28:04 42° W 11:32:12 10° N
Shenzhou-11 Module 2.9 11:28:38 10° WNW 11:30:58 38° NNE 11:33:17 10° E
STARLINK-1036 4.0 11:28:55 14° SSW 11:32:16 58° SE 11:36:21 10° NE
Okean 3 Rocket 4.5 11:29:06 15° SW 11:32:19 33° WNW 11:36:27 10° NNW
CZ-4C R/B 3.0 11:30:45 10° S 11:34:20 65° WSW 11:37:58 10° NNW
Cosmos 1680 Rocket 4.0 11:29:59 10° S 11:35:09 61° ESE 11:40:22 10° NNE
Cosmos 1727 Rocket 4.0 11:29:28 10° N 11:35:38 75° W 11:41:47 10° S
Cosmos 1515 Rocket 3.8 11:32:41 10° N 11:37:03 72° E 11:41:21 10° SSE
STARLINK-1044 3.8 11:33:42 13° SW 11:37:14 65° SE 11:41:21 10° NE
Cosmos 1346 Rocket 3.8 11:36:16 10° SSE 11:40:06 47° E 11:43:55 10° NNE
Cosmos 1844 3.8 11:35:15 10° NNW 11:41:00 65° WSW 11:46:41 10° S
FALCON 9 DEB 3.0 11:37:35 10° NW 11:41:02 78° SW 11:44:30 10° SE
Cosmos 923 Rocket 4.0 11:36:27 10° SSW 11:41:39 86° WNW 11:46:53 10° NNE
STARLINK-1047 3.7 11:38:29 12° SW 11:42:13 72° SE 11:46:21 10° NE
Centaur D-1AR AC-40 3.8 11:43:30 10° S 11:44:25 11° SSE 11:45:28 10° SE
Cosmos 2322 Rocket 4.3 11:43:07 10° WNW 11:45:14 12° NW 11:47:22 10° NNW
Cosmos 1340 2.6 11:43:59 10° S 11:47:44 80° WNW 11:51:30 10° N
Meteor 2-3 Rocket 3.8 11:42:18 10° SSW 11:47:50 64° W 11:53:23 10° N
CZ-3 R/B 4.0 11:12:21 10° WSW 11:50:10 53° S 11:59:30 10° ESE
STARLINK-1059 3.6 11:48:02 10° SW 11:52:08 88° SE 11:56:18 10° NE
BREEZE-M DEB (TANK) 3.8 11:57:42 10° SW 11:57:49 10° SSW 11:57:57 10° SSW
